Flag for United Kingdom Weather past 2 weeks in Edinburgh, Scotland, United Kingdom

Now
41 °F

Clear.


Feels Like: 41 °F
Forecast: 45 / 61 °F
Wind: 2 mph from South

Location: Edinburgh Airport

Current Time: Apr 22, 2015 at 1:38:09 AM

Latest Report: Apr 22, 2015 at 12:50 AM


Visibility: 10 mi

Pressure: 30.60 "Hg

Humidity: 93%

Dew point: 39 °F

Location of EdinburghLocation

Historic Weather in Edinburgh — Graph

°F

Edinburgh temperature yesterday

Maximum temperature yesterday: 64 °F (at 4:20 PM)
Minimum temperature yesterday: 34 °F (at 4:20 AM)
Average temperature yesterday: 49 °F

Past Weeks' High & Low Weather Summary

 TemperatureHumidityPressure
High64 °F (Apr 9, 3:50 PM)100% (Apr 8, 5:20 AM)30.60 "Hg (Apr 8, 5:20 AM)
Low30 °F (Apr 16, 4:50 AM)32% (Apr 9, 1:20 PM)29.53 "Hg (Apr 11, 4:20 AM)
Average47 °F75%30.23 "Hg
* Reported Apr 6 11:20 PM — Apr 21 11:50 PM, Edinburgh, Weather by CustomWeather, © 2015

Note: Actual official high and low records may vary slightly from our data, if they occured in-between our weather recording intervals... More about our weather records

Advertising

Edinburgh weather history for previous 24 hours

 ConditionsComfort  
Time TempWeatherWind HumidityBarometerVisibility
11:50 PM
Tue, Apr 21
41 °FClear.No wind93%30.60 "Hg10 mi
11:20 PM43 °FClear.No wind93%30.60 "Hg10 mi
10:50 PM43 °FClear.2 mph93%30.60 "Hg10 mi
10:20 PM45 °FClear.No wind87%30.60 "Hg10 mi
9:50 PM46 °FClear.2 mph82%30.60 "Hg10 mi
9:20 PM46 °FSunny.No wind82%30.60 "Hg10 mi
8:50 PM50 °FSunny.8 mph76%30.57 "Hg10 mi
8:20 PM50 °FSunny.9 mph76%30.57 "Hg10 mi
7:50 PM54 °FSunny.9 mph67%30.57 "Hg10 mi
7:20 PM59 °FSunny.5 mph55%30.57 "Hg10 mi
6:50 PM61 °FSunny.6 mph48%30.57 "Hg10 mi
6:20 PM64 °FSunny.2 mph32%30.57 "Hg10 mi
5:50 PM64 °FSunny.3 mph34%30.57 "Hg10 mi
5:20 PM64 °FSunny.2 mph34%30.57 "Hg10 mi
4:50 PM64 °FSunny.3 mph40%30.57 "Hg10 mi
4:20 PM64 °FPassing clouds.7 mph40%30.57 "HgN/A
3:50 PM63 °FSunny.3 mph45%30.57 "Hg10 mi
3:20 PM63 °FPassing clouds.5 mph45%30.57 "HgN/A
2:50 PM63 °FPassing clouds.6 mph45%30.57 "HgN/A
2:20 PM61 °FPassing clouds.8 mph52%30.57 "HgN/A
1:50 PM61 °FPassing clouds.7 mph52%30.60 "HgN/A
1:20 PM59 °FPassing clouds.9 mph55%30.60 "HgN/A
12:50 PM57 °FPassing clouds.8 mph55%30.60 "HgN/A
12:20 PM57 °FPassing clouds.8 mph55%30.60 "HgN/A
11:50 AM57 °FPassing clouds.8 mph55%30.60 "HgN/A
11:20 AM57 °FPassing clouds.8 mph55%30.60 "HgN/A
10:50 AM55 °FPassing clouds.9 mph59%30.60 "HgN/A
10:20 AM55 °FPassing clouds.10 mph59%30.60 "HgN/A
9:50 AM52 °FPassing clouds.8 mph67%30.60 "HgN/A
9:20 AM50 °FSunny.10 mph71%30.60 "Hg10 mi
8:50 AM48 °FSunny.8 mph76%30.60 "Hg10 mi
8:20 AM46 °FSunny.10 mph76%30.60 "Hg10 mi
7:50 AM45 °FSunny.8 mph81%30.60 "Hg10 mi
7:20 AM41 °FSunny.7 mph81%30.57 "Hg10 mi
6:50 AM37 °FClear.7 mph93%30.57 "Hg10 mi
6:20 AM37 °FClear.3 mph87%30.57 "Hg10 mi
5:50 AM41 °FClear.7 mph81%30.57 "Hg10 mi
5:20 AM34 °FClear.3 mph93%30.57 "Hg10 mi
4:50 AM34 °FClear.2 mph87%30.54 "Hg10 mi
4:20 AM34 °FClear.3 mph87%30.54 "Hg10 mi
3:50 AM37 °FClear.3 mph87%30.54 "Hg10 mi
3:20 AM36 °FClear.5 mph87%30.57 "Hg10 mi
2:50 AM36 °FClear.5 mph87%30.57 "Hg10 mi
2:20 AM37 °FClear.2 mph87%30.57 "Hg10 mi
1:50 AM37 °FClear.5 mph87%30.54 "Hg10 mi
1:20 AM39 °FClear.5 mph87%30.54 "Hg10 mi
Weather by CustomWeather, © 2015

See weather overviewHow to use our weather pages